Osoyoos, British Columbia

9:19 PM PST on December 03, 2016 (GMT -0800)
Osoyoos

Weather History for CWYY - October, 2011

Change the Weather History Date:

Thursday, October 6, 2011

  Actual Average (CYYF) Record (CYYF)
Temperature  
Mean Temperature 57 °F -  
Max Temperature 65 °F 60 °F 78 °F (2003)
Min Temperature 49 °F 39 °F 28 °F (2000)
Degree Days  
Heating Degree Days 8    
Growing Degree Days 7 (Base 50)    
Moisture  
Dew Point 45 °F    
Average Humidity 61    
Maximum Humidity 88    
Minimum Humidity 36    
Precipitation  
Precipitation 0.00 in - - ()
Sea Level Pressure  
Sea Level Pressure 29.74 in    
Wind  
Wind Speed 6 mph ()    
Max Wind Speed 15 mph    
Max Gust Speed 24 mph    
Averages and records for this station are not official NWS values.
T = Trace of Precipitation, MM = Missing Value Source: Averaged Metar Reports

Daily Weather History Graph

Daily Weather History Graph

Search for Another Location

Airport or City:

Trip Planner

Search our weather history database for the weather conditions in past years. The results will help you decide how hot, cold, wet, or windy it might be!

Date:

Astronomy

Oct. 06, 2011 Rise Set
Actual Time 7:04 AM PDT 6:26 PM PDT
Civil Twilight 6:32 AM PDT 6:57 PM PDT
Nautical Twilight 5:56 AM PDT 7:34 PM PDT
Astronomical Twilight 5:19 AM PDT 8:11 PM PDT
Moon 4:03 PM PDT (10/6) 1:32 AM PDT (10/6)
Length of Visible Light 12h 25m
Length of Day
11h 21m
Waxing Gibbous, 76% of the Moon is Illuminated
Oct 6
Waxing Gibbous
Oct 11
Full
Oct 19
Last Quarter
Oct 26
New
Nov 2
First Quarter

Hourly Weather History & Observations

Time (PDT) Temp. Dew Point Humidity Pressure Visibility Wind Dir Wind Speed Gust Speed Precip Events Conditions
1:00 AM 54.0 °F 47.7 °F 79% 29.64 in - NW 4.6 mph - N/A   Unknown
2:00 AM 54.9 °F 47.8 °F 77% 29.66 in - NW 2.3 mph - N/A   Unknown
3:00 AM 54.9 °F 48.4 °F 79% 29.65 in - NW 5.8 mph - N/A   Unknown
4:00 AM 56.5 °F 47.1 °F 71% 29.66 in - NNW 8.1 mph - N/A   Unknown
5:00 AM 58 °F 45 °F 52% 29.66 in - NW 8.1 mph - -  
5:00 AM 58.1 °F 45.1 °F 62% 29.66 in - NW 8.1 mph - N/A   Unknown
6:00 AM 59.5 °F 41.9 °F 52% 29.67 in - North 15.0 mph 24.2 mph N/A   Unknown
7:00 AM 57.4 °F 46.9 °F 68% 29.69 in - NNW 11.5 mph 19.6 mph N/A   Unknown
8:00 AM 58.3 °F 42.8 °F 56% 29.72 in - NNW 12.7 mph 21.9 mph N/A   Unknown
9:00 AM 58.3 °F 43.3 °F 58% 29.73 in - NNW 12.7 mph 23.0 mph N/A   Unknown
10:00 AM 59.7 °F 41.2 °F 50% 29.75 in - North 11.5 mph 24.2 mph N/A   Unknown
11:00 AM 60 °F 41 °F 37% 29.76 in - North 11.5 mph - -  
11:00 AM 60.1 °F 40.6 °F 49% 29.76 in - North 11.5 mph 19.6 mph N/A   Unknown
1:00 PM 62.6 °F 41.7 °F 46% 29.76 in - NNW 9.2 mph - N/A   Unknown
2:00 PM 63.9 °F 41.9 °F 45% 29.77 in - NNW 8.1 mph - N/A   Unknown
3:00 PM 64.6 °F 41.7 °F 43% 29.77 in - NNW 8.1 mph - N/A   Unknown
4:00 PM 65.1 °F 41.5 °F 42% 29.77 in - North 4.6 mph - N/A   Unknown
5:00 PM 65 °F 44 °F 36% 29.76 in - West 2.3 mph - -  
5:00 PM 64.6 °F 44.2 °F 48% 29.76 in - West 2.3 mph - N/A   Unknown
6:00 PM 61.7 °F 47.3 °F 59% 29.78 in - NNE 2.3 mph - N/A   Unknown
7:00 PM 60.1 °F 46.9 °F 62% 29.80 in - NNW 2.3 mph - N/A   Unknown
8:00 PM 55.9 °F 47.1 °F 72% 29.82 in - ESE 2.3 mph - N/A   Unknown
9:00 PM 50.9 °F 46.4 °F 85% 29.83 in - NE 1.2 mph - N/A   Unknown
10:00 PM 50.5 °F 46.6 °F 86% 29.84 in - ENE 2.3 mph - N/A   Unknown
11:00 PM 49 °F 46 °F 85% 29.84 in - NNE 3.5 mph - -  
11:00 PM 49.3 °F 45.9 °F 88% 29.84 in - NNE 3.5 mph - N/A   Unknown